Terminal Aerodrome Forecast
Issued by NWS Pocatello, ID

Home | Current Version | Previous Version | Text Only | Print | Product List | Glossary On
Versions: 1 2 3 4 5 6 7 8 9 10 11 12 13 14 15 16
000
FTUS45 KPIH 190500
TAFBYI
TAF
KBYI 190520Z 1906/2006 VRB06KT P6SM SCT180
     FM191900 29010KT P6SM FEW060 BKN160=

USA.gov is the U.S. government's official web portal to all federal, state and local government web resources and services.